Preview of NWS' New Version of Forecast
This preview is not operational and should not be used for support decisions.

Regional Weather Roundup (RWR)

Issued by National Weather Service (NWS)

                            
000
ASUS43 KDTX 240801
RWRMI 
MICHIGAN HOURLY REGIONAL WEATHER ROUNDUP
NATIONAL WEATHER SERVICE DETROIT/PONTIAC MI
400 AM EDT FRI MAY 24 2019

NOTE: "FAIR" INDICATES FEW OR NO CLOUDS BELOW 12,000 FEET WITH NO
SIGNIFICANT WEATHER AND/OR OBSTRUCTION TO VISIBILITY.

MIZ047>049-052>055-059>063-066>070-074>076-081>083-240900-
SOUTHEAST LOWER MICHIGAN
  
CITY           SKY/WX    TMP DP  RH WIND       PRES   REMARKS
ADRIAN         FAIR      51  48  89 N3        30.10R                  
ALMA           FAIR      51  47  86 CALM      30.09S                  
ANN ARBOR      FAIR      47  46  97 CALM      30.08R                  
BAD AXE        FAIR      50  46  87 W3        30.06R                  
CARO           FAIR      51  47  86 CALM      30.07S                  
DETROIT CITY   FAIR      56  48  74 W5        30.07R                  
DETROIT        FAIR      56  47  71 W3        30.08R                  
FLINT          FAIR      49  46  90 W5        30.08R                  
GROSSE ILE     FAIR      55  49  81 CALM      30.07R                  
HILLSDALE      FAIR      49  48  95 CALM      30.10R                  
HOWELL         FAIR      51  48  89 W5        30.09R                  

CITY           SKY/WX    TMP DP  RH WIND       PRES   REMARKS
JACKSON        FAIR      49  49 100 CALM      30.09S                  
LAMBERTVILLE   FAIR      51  50  97 CALM      30.08S                  
LANSING        FAIR      52  50  93 CALM      30.10R                  
LAPEER         FAIR      49  48  95 CALM      30.08S                  
MASON          FAIR      51  49  93 CALM      30.09S                  
MONROE         FAIR      53  52  97 CALM      30.08R                  
MT. CLEMENS    FAIR      55  52  91 NW5       30.04F                  
PONTIAC        FAIR      55  48  77 NW5       30.05S                  
PORT HOPE        N/A     50  32  50 NW5       30.05R                  
PORT HURON     FAIR      54  48  82 CALM      30.06S                  
TRI CITIES     FAIR      53  49  86 NW7       30.08S                  
MIDLAND        FAIR      49  47  91 CALM      30.07S                  
TROY           FAIR      57  45  62 NW3       30.08R                  
SAGINAW HB     FAIR      54  50  87 NW6       30.07S                  
$$
MIZ043>046-050>051-056>058-064>065-071>073-077>080-240900-
SOUTHWEST LOWER MICHIGAN
  
CITY           SKY/WX    TMP DP  RH WIND       PRES   REMARKS
BATTLE CREEK   FAIR      51  48  89 CALM      30.11R                  
BENTON HARBOR  FAIR      50  48  93 CALM      30.10S                  
BIG RAPIDS     FAIR      47  45  92 W5        30.09S                  
COLDWATER      FAIR      51  51 100 CALM      30.11R                  
FREMONT        FAIR      49  46  90 CALM      30.09F                  
HOLLAND        FAIR      50  47  89 CALM      30.10S                  
GRAND RAPIDS   FAIR      53  47  79 CALM      30.09S                  
IONIA          FAIR      53  46  78 CALM      30.09S                  
KALAMAZOO      FAIR      52  49  89 CALM      30.10R                  
LUDINGTON      FAIR      45  44  97 CALM      30.10S                  
MOUNT PLEASANT FAIR      50  46  84 W3        30.08S                  
MUSKEGON       FAIR      46  42  86 CALM      30.09F                  
SOUTH HAVEN    FAIR      49  47  94 CALM      30.11S                  
$$
MIZ016>042-240900-
NORTHERN LOWER MICHIGAN
  
CITY           SKY/WX    TMP DP  RH WIND       PRES   REMARKS
ALPENA         CLOUDY    52  47  83 NW9       30.08R                  
BEAVER ISLAND  CLOUDY    46  45  96 W3        30.12R                  
BELLAIRE       CLOUDY    50  46  85 CALM      30.11S                  
CADILLAC       FAIR      47  46  94 N3        30.08F                  
CHARLEVOIX     CLOUDY    48  46  91 NW3       30.14S                  
FRANKFORT      MOCLDY    53  46  77 CALM      30.12R                  
GAYLORD        CLOUDY    46  46 100 VRB5      30.09S FOG              
GRAYLING       CLOUDY    49  46  91 N8        30.08S                  
HARBOR SPRINGS CLOUDY    44  43  97 CALM      30.11S FOG              
HOUGHTON LAKE  FAIR      50  45  83 NW5       30.09S                  
MANISTEE       MOCLDY    51  47  86 NE7       30.11R                  
OSCODA         FAIR      50  46  86 NW9       30.05S                  
PELLSTON       CLOUDY    49  46  90 W6        30.10S                  
ROGERS CITY    CLOUDY    49  46  91 W3        30.09R                  
TRAVERSE CITY  CLOUDY    49  46  90 NE6       30.11S                  
$$
MIZ007>008-015-240900-
EASTERN UPPER MICHIGAN
  
CITY           SKY/WX    TMP DP  RH WIND       PRES   REMARKS
KINROSS        CLOUDY    44  43  96 W5        30.09R                  
MACKINAC ISLAN CLOUDY    48  48 100 W7        30.09R                  
NEWBERRY       CLOUDY    46  43  91 NW5       30.11R                  
S. S. MARIE    CLOUDY    43  41  93 W6        30.08R                  
MUNISING         N/A     42  40  92 N5        30.11S                  
$$
MIZ004>006-011>014-085-240900-
CENTRAL UPPER MICHIGAN
  
CITY           SKY/WX    TMP DP  RH WIND       PRES   REMARKS
MANISTIQUE     CLOUDY    48  45  90 N5        30.10S                  
ESCANABA       CLOUDY    50  45  83 N5        30.11S                  
MENOMINEE      CLOUDY    52  47  83 N5        30.13R                  
SAWYER-GWINN   CLOUDY    46  43  92 N9        30.11S                  
$$
MIZ001>003-009>011-084-240900-
WESTERN UPPER MICHIGAN
  
CITY           SKY/WX    TMP DP  RH WIND       PRES   REMARKS
IRON MOUNTAIN  CLOUDY    50  43  77 N3        30.11S                  
HOUGHTON       CLOUDY    47  43  86 NE10      30.13S                  
COPPER HARBOR    N/A     43  40  89 CALM      30.16R                  
IRONWOOD       CLOUDY    46  44  93 E6        30.15R                  
$$

ABBREVIATIONS USED IN REMARKS
   TC - TEMPERATURE IN CELSIUS
  WCI - WIND CHILL INDEX
   HX - HEAT INDEX
  VSB - VISIBILITY